User: anonymous   Login
Location: Langangen
(59.1000°N, 9.8000°E)
Time: 22:58:26
(UTC+02:00)
Language:

Iridium 60 - Orbit

View from above orbital plane
View from above orbital plane
View from above satellite
View from above satellite

Ground track
Ground track

The orbit data is extracted from the following two-line orbital elements,

1 25276U 98019E   17084.94853493 +.00000138 +00000-0 +42331-4 0  9993
2 25276 086.3959 321.8042 0002059 085.3183 274.8248 14.34220738993929
Epoch (UTC): 25 March 2017 22:45:53
Eccentricity: 0.0002059
inclination: 86.3959°
perigee height: 776 km
apogee height: 779 km
right ascension of ascending node: 321.8042°
argument of perigee: 85.3183°
revolutions per day: 14.34220738
mean anomaly at epoch: 274.8248°
orbit number at epoch: 99392

The dashed part of the orbit path shows where the satellite is in the earth's shadow,  

DLR